THORAD AGENA D DEB

Satellite information

Favourite Embed

Satellite Type and Status

DEBRISIN ORBIT

Key statistics

Satellite THORAD AGENA D DEB at a glance.

Uptime

20179

Days in orbit

Revolutions

≈ 14.6

Per day

Orbit

SSO

Sun Synchronous Orbit

Inclination

100.0

Latest

Satellite identification and parameters

Extended collection of information and parameters for THORAD AGENA D DEB.

Object identification

Identified? True

Debris? True

Object name: THORAD AGENA D DEB

International designator: 1970-025BX

Object number (NORAD): 4709

Object ID (CCSDS): 4709

Country: UNITED STATES OF AMERICA (US)

Current information (Y/N): Y

RCS size: SMALL

Orbital parameters

Period: 98.825 minutes

Inclination: 100.0362 deg

SMA: 7080.635 km

Apoapsis: 756.675 km

Periapsis: 648.326 km

RAAN: 40.3839 deg

Eccentricy: 0.0076511

Argument of periapsis: 58.9794 deg

Mean anomaly: 301.8883 deg

Mean motion: 14.5711698 rev/day

Mean motion (dot): 0.0000335 rev/day2

B* drag term: 0.00072818 1/REarth

Two-line elements (TLE)

Creation date: July 6, 2025, 6:05 p.m.

Reference frame: TEME

Reference center: EARTH

Epoch: July 6, 2025, 12:37 p.m. UTC

TLE line 0: 0 THORAD AGENA D DEB

TLE line 1: 1 04709U 70025BX 25187.52620374 .00003350 00000-0 72818-3 0 9996

TLE line 2: 2 04709 100.0362 40.3839 0076511 58.9794 301.8883 14.57116980852809

Live tracking on map

Real-time ground track for satellite THORAD AGENA D DEB.

In-orbit conjunctions

A list of the most updated potential collisions computed for object THORAD AGENA D DEB.

Target Orbit TCA Probability of collision Miss distance Type
THORAD AGENA D DEB LEO 2025-03-30 04:50:08 0.0001157649 161.0 (m) DEBRIS
DELTA 1 DEB SSO 2024-11-02 08:05:40 0.0001982508 80.0 (m) DEBRIS

Associated space launch

Meteorological research and development satellite

THORAD AGENA D DEB was lifted into orbit during the mission ‘Thorad SLV-2G Agena D | Nimbus 4’, on board a Thorad SLV-2G Agena D space rocket.

The launch took place on April 8, 1970, 8:17 a.m. from Space Launch Complex 2E.

For more information about the launch, click the button.

Launch to space Thorad SLV-2G Agena D | Nimbus 4
Thorad SLV-2G Agena D | Nimbus 4

Agency: N/A

Status: Launch Successful

Launch date: April 8, 1970, 8:17 a.m. UTC

Rocket: Thorad SLV-2G Agena D

Launch pad: Space Launch Complex 2E

Location: Vandenberg SFB, CA, USA

...

Latest news about this satellite

There are no fresh news available about this satellite. Check back as we update our databases every day.


Newsletter sign-up

Weekly statistics, charts and insights to help you stay on top of the space industry.